Tracking 35055 objects as of 18-Aug-2026
HD Live streaming from Space Station
objects crossing your sky now

ICEYE-X35

Track ICEYE-X35 now!
10-day predictions
ICEYE-X35 is classified as:


NORAD ID: 58302
Int'l Code: 2023-174AY
Launch date: November 11, 2023
Source: United States (US)
Launch site: AIR FORCE WESTERN TEST RANGE (AFWTR)

Uplink (MHz):
Downlink (MHz): 2263.600
Beacon (MHz):
Mode: 500k BPSK
Call sign:
Status: Inactive

Your satellite tracking list
Your tracking list is empty




NASA's NSSDC Master Catalog

Two Line Element Set (TLE):
1 58302U 23174AY  26230.64333362  .00059057  00000-0  77577-3 0  9990
2 58302  97.3751 317.2058 0005299 317.4452  42.6393 15.58314202155053
Source of the keplerian elements: AFSPC